When you browse on this site, cookies collect data to enhance your experience and personalize the content and advertising you see.
Visit our Privacy Policy to learn more. By continuing to use the site, you agree to this use of cookies and data.
  • In Spain
  • List of Countries
  • For 7 days
  • Water Temperature
  • Weather Map
  • Weather Widgets
  • user-avatar
    Login

    Hourly Weather Biskira

    Today, 18 August, Sunday

    Time Temperature Precipitation Wind Pressure Humidity
    00:00 +33°C° 0 mm 1 mps 751 mmHg 26%
    01:00 +33°C° 0 mm 1 mps 751 mmHg 26%
    02:00 +32°C° 0 mm 2 mps 751 mmHg 26%
    03:00 +32°C° 0 mm 2 mps 751 mmHg 27%
    04:00 +32°C° 0 mm 2 mps 751 mmHg 27%
    05:00 +33°C° 0 mm 3 mps 751 mmHg 26%
    06:00 +33°C° 0 mm 3 mps 752 mmHg 26%
    07:00 +35°C° 0 mm 4 mps 752 mmHg 25%
    08:00 +36°C° 0 mm 4 mps 752 mmHg 23%
    09:00 +39°C° 0 mm 5 mps 752 mmHg 21%
    10:00 +40°C° 0 mm 4 mps 752 mmHg 19%
    11:00 +42°C° 0 mm 4 mps 751 mmHg 17%
    12:00 +43°C° 0 mm 3 mps 751 mmHg 15%
    13:00 +44°C° 0 mm 3 mps 750 mmHg 14%
    14:00 +45°C° 0 mm 3 mps 750 mmHg 13%
    15:00 +46°C° 0 mm 3 mps 749 mmHg 12%
    16:00 +45°C° 0 mm 3 mps 749 mmHg 13%
    17:00 +44°C° 0 mm 3 mps 749 mmHg 13%
    18:00 +44°C° 0 mm 3 mps 749 mmHg 13%
    19:00 +42°C° 0 mm 3 mps 749 mmHg 15%
    20:00 +40°C° 0 mm 3 mps 749 mmHg 17%
    21:00 +38°C° 0 mm 4 mps 750 mmHg 18%
    22:00 +38°C° 0 mm 3 mps 750 mmHg 19%
    23:00 +37°C° 0 mm 3 mps 750 mmHg 20%

    Tomorrow, 19 August, Monday

    Time Temperature Precipitation Wind Pressure Humidity
    00:00 +36°C° 0 mm 2 mps 750 mmHg 21%
    01:00 +36°C° 0 mm 2 mps 750 mmHg 21%
    02:00 +35°C° 0 mm 2 mps 749 mmHg 22%
    03:00 +35°C° 0 mm 2 mps 749 mmHg 23%
    04:00 +35°C° 0 mm 2 mps 749 mmHg 23%
    05:00 +35°C° 0 mm 2 mps 750 mmHg 23%
    06:00 +35°C° 0 mm 3 mps 750 mmHg 23%
    07:00 +36°C° 0 mm 3 mps 750 mmHg 21%
    08:00 +38°C° 0 mm 4 mps 750 mmHg 19%
    09:00 +41°C° 0 mm 4 mps 750 mmHg 17%
    10:00 +42°C° 0 mm 3 mps 750 mmHg 16%
    11:00 +42°C° 0 mm 2 mps 750 mmHg 15%
    12:00 +43°C° 0 mm 2 mps 750 mmHg 14%
    13:00 +45°C° 0 mm 2 mps 749 mmHg 13%
    14:00 +45°C° 0 mm 2 mps 749 mmHg 12%
    15:00 +45°C° 0 mm 1 mps 748 mmHg 12%
    16:00 +46°C° 0 mm 2 mps 748 mmHg 12%
    17:00 +45°C° 0 mm 2 mps 749 mmHg 12%
    18:00 +45°C° 0 mm 3 mps 749 mmHg 12%
    19:00 +42°C° 0 mm 2 mps 749 mmHg 13%
    20:00 +40°C° 0 mm 2 mps 750 mmHg 15%
    21:00 +39°C° 0 mm 2 mps 750 mmHg 16%
    22:00 +38°C° 0 mm 3 mps 750 mmHg 18%
    23:00 +37°C° 0 mm 4 mps 750 mmHg 20%

    Day after tomorrow, 20 August, Tuesday

    Time Temperature Precipitation Wind Pressure Humidity
    00:00 +36°C° 0 mm 6 mps 750 mmHg 23%
    01:00 +35°C° 0 mm 5 mps 750 mmHg 28%
    02:00 +34°C° 0 mm 5 mps 750 mmHg 33%
    03:00 +32°C° 0 mm 5 mps 750 mmHg 38%
    04:00 +32°C° 0 mm 4 mps 750 mmHg 39%
    05:00 +32°C° 0 mm 4 mps 750 mmHg 39%
    06:00 +31°C° 0 mm 3 mps 751 mmHg 40%
    07:00 +34°C° 0 mm 4 mps 751 mmHg 35%
    08:00 +36°C° 0 mm 5 mps 751 mmHg 30%
    09:00 +38°C° 0 mm 6 mps 751 mmHg 25%
    10:00 +40°C° 0 mm 6 mps 751 mmHg 23%
    11:00 +41°C° 0 mm 6 mps 751 mmHg 21%
    12:00 +42°C° 0 mm 6 mps 750 mmHg 19%
    13:00 +43°C° 0 mm 5 mps 750 mmHg 18%
    14:00 +43°C° 0 mm 4 mps 750 mmHg 18%
    15:00 +44°C° 0 mm 4 mps 749 mmHg 17%
    16:00 +43°C° 0 mm 3 mps 749 mmHg 17%
    17:00 +43°C° 0 mm 3 mps 749 mmHg 18%
    18:00 +41°C° 0 mm 2 mps 749 mmHg 19%
    19:00 +40°C° 0 mm 2 mps 750 mmHg 20%
    20:00 +39°C° 0 mm 3 mps 751 mmHg 22%
    21:00 +38°C° 0 mm 3 mps 751 mmHg 23%
    22:00 +36°C° 0 mm 3 mps 752 mmHg 27%
    23:00 +35°C° 0 mm 4 mps 752 mmHg 31%

    21 August, Wednesday

    Time Temperature Precipitation Wind Pressure Humidity
    00:00 +34°C° 0 mm 4 mps 752 mmHg 35%
    01:00 +33°C° 0 mm 3 mps 752 mmHg 38%
    02:00 +31°C° 0 mm 3 mps 752 mmHg 41%
    03:00 +30°C° 0 mm 2 mps 751 mmHg 44%
    04:00 +30°C° 0 mm 1 mps 752 mmHg 44%
    05:00 +30°C° 0 mm 1 mps 752 mmHg 45%
    06:00 +30°C° 0 mm 1 mps 752 mmHg 45%
    07:00 +31°C° 0 mm 1 mps 753 mmHg 41%
    08:00 +32°C° 0 mm 2 mps 753 mmHg 37%
    09:00 +35°C° 0 mm 2 mps 753 mmHg 34%
    10:00 +37°C° 0 mm 3 mps 753 mmHg 30%
    11:00 +38°C° 0 mm 3 mps 752 mmHg 26%
    12:00 +40°C° 0 mm 3 mps 752 mmHg 22%
    13:00 +40°C° 0 mm 3 mps 751 mmHg 20%
    14:00 +41°C° 0 mm 2 mps 751 mmHg 19%
    15:00 +42°C° 0 mm 2 mps 750 mmHg 18%
    16:00 +41°C° 0 mm 2 mps 750 mmHg 18%
    17:00 +41°C° 0 mm 1 mps 750 mmHg 19%
    18:00 +40°C° 0 mm 1 mps 750 mmHg 20%
    19:00 +39°C° 0 mm 1 mps 751 mmHg 21%
    20:00 +37°C° 0 mm 1 mps 751 mmHg 23%
    21:00 +35°C° 0 mm 1 mps 752 mmHg 25%
    22:00 +36°C° 0 mm 3 mps 752 mmHg 27%
    23:00 +35°C° 0 mm 5 mps 752 mmHg 30%

    22 August, Thursday

    Time Temperature Precipitation Wind Pressure Humidity
    00:00 +34°C° 0 mm 7 mps 752 mmHg 32%
    01:00 +33°C° 0 mm 6 mps 752 mmHg 37%
    02:00 +32°C° 0 mm 5 mps 752 mmHg 41%
    03:00 +30°C° 0 mm 4 mps 752 mmHg 46%
    04:00 +30°C° 0 mm 3 mps 752 mmHg 47%
    05:00 +30°C° 0 mm 2 mps 752 mmHg 49%
    06:00 +29°C° 0 mm 2 mps 753 mmHg 50%
    07:00 +31°C° 0 mm 3 mps 753 mmHg 45%
    08:00 +34°C° 0 mm 4 mps 753 mmHg 39%
    09:00 +35°C° 0 mm 5 mps 753 mmHg 34%
    10:00 +37°C° 0 mm 5 mps 753 mmHg 30%
    11:00 +39°C° 0 mm 5 mps 752 mmHg 26%
    12:00 +41°C° 0 mm 5 mps 752 mmHg 22%
    13:00 +41°C° 0 mm 4 mps 751 mmHg 22%
    14:00 +42°C° 0 mm 4 mps 751 mmHg 21%
    15:00 +42°C° 0 mm 3 mps 750 mmHg 20%
    16:00 +42°C° 0 mm 3 mps 750 mmHg 21%
    17:00 +40°C° 0 mm 2 mps 750 mmHg 21%
    18:00 +40°C° 0 mm 2 mps 750 mmHg 22%
    19:00 +39°C° 0 mm 2 mps 751 mmHg 23%
    20:00 +38°C° 0 mm 2 mps 751 mmHg 24%
    21:00 +37°C° 0 mm 3 mps 752 mmHg 25%
    22:00 +36°C° 0 mm 3 mps 752 mmHg 27%
    23:00 +35°C° 0 mm 4 mps 751 mmHg 29%

    23 August, Friday

    Time Temperature Precipitation Wind Pressure Humidity
    00:00 +35°C° 0 mm 5 mps 751 mmHg 30%
    01:00 +34°C° 0 mm 5 mps 751 mmHg 33%
    02:00 +33°C° 0 mm 5 mps 751 mmHg 37%
    03:00 +32°C° 0 mm 5 mps 751 mmHg 40%
    04:00 +32°C° 0 mm 5 mps 752 mmHg 40%
    05:00 +32°C° 0 mm 5 mps 752 mmHg 41%
    06:00 +30°C° 0 mm 4 mps 752 mmHg 42%
    07:00 +33°C° 0 mm 5 mps 752 mmHg 36%
    08:00 +35°C° 0 mm 6 mps 752 mmHg 31%
    09:00 +36°C° 0 mm 7 mps 752 mmHg 26%
    10:00 +39°C° 0 mm 6 mps 752 mmHg 23%
    11:00 +40°C° 0 mm 6 mps 751 mmHg 21%
    12:00 +41°C° 0 mm 6 mps 751 mmHg 19%
    13:00 +42°C° 0 mm 5 mps 750 mmHg 19%
    14:00 +42°C° 0 mm 5 mps 750 mmHg 18%
    15:00 +43°C° 0 mm 4 mps 749 mmHg 17%
    16:00 +42°C° 0 mm 4 mps 749 mmHg 18%
    17:00 +41°C° 0 mm 4 mps 749 mmHg 18%
    18:00 +41°C° 0 mm 4 mps 749 mmHg 19%
    19:00 +40°C° 0 mm 4 mps 749 mmHg 20%
    20:00 +38°C° 0 mm 4 mps 749 mmHg 22%
    21:00 +36°C° 0 mm 4 mps 750 mmHg 23%
    22:00 +36°C° 0 mm 4 mps 750 mmHg 25%
    23:00 +35°C° 0 mm 5 mps 750 mmHg 26%
    Show more